TimeCDT,TemperatureF,Dew PointF,Humidity,Sea Level PressureIn,VisibilityMPH,Wind Direction,Wind SpeedMPH,Gust SpeedMPH,PrecipitationIn,Events,Conditions,WindDirDegrees,DateUTC
12:54 AM,62.1,48.0,60,29.96,10.0,SSE,10.4,-,N/A,,Clear,160,2012-03-21 05:54:00
1:54 AM,64.0,46.9,54,29.97,10.0,SSE,8.1,-,N/A,,Clear,160,2012-03-21 06:54:00
2:54 AM,64.0,46.0,52,29.97,10.0,SSE,9.2,-,N/A,,Clear,160,2012-03-21 07:54:00
3:54 AM,64.0,46.0,52,29.96,10.0,SSE,9.2,-,N/A,,Overcast,160,2012-03-21 08:54:00
4:54 AM,64.0,46.9,54,29.96,10.0,SSE,5.8,-,N/A,,Overcast,150,2012-03-21 09:54:00
5:54 AM,63.0,46.9,56,29.98,10.0,SE,4.6,-,N/A,,Overcast,140,2012-03-21 10:54:00
6:54 AM,63.0,48.0,58,30.00,10.0,South,4.6,-,N/A,,Overcast,180,2012-03-21 11:54:00
7:54 AM,63.0,48.9,60,30.01,10.0,South,5.8,-,N/A,,Scattered Clouds,170,2012-03-21 12:54:00
8:54 AM,64.9,50.0,58,30.02,10.0,South,8.1,-,N/A,,Mostly Cloudy,180,2012-03-21 13:54:00
9:54 AM,69.1,51.1,53,30.03,10.0,South,11.5,-,N/A,,Scattered Clouds,180,2012-03-21 14:54:00
10:54 AM,70.0,52.0,53,30.03,10.0,SSW,6.9,-,N/A,,Clear,200,2012-03-21 15:54:00
11:54 AM,73.9,52.0,46,30.03,10.0,WSW,18.4,25.3,N/A,,Clear,240,2012-03-21 16:54:00
12:54 PM,73.9,53.1,48,30.01,10.0,SSW,13.8,21.9,N/A,,Clear,210,2012-03-21 17:54:00
1:54 PM,75.0,53.1,46,29.99,10.0,SW,11.5,19.6,N/A,,Clear,220,2012-03-21 18:54:00
2:54 PM,75.0,50.0,41,29.98,10.0,WSW,13.8,21.9,N/A,,Clear,240,2012-03-21 19:54:00
3:54 PM,72.0,54.0,53,30.00,10.0,WNW,10.4,-,N/A,,Clear,300,2012-03-21 20:54:00
4:54 PM,70.0,54.0,57,30.02,10.0,WNW,11.5,-,N/A,,Clear,300,2012-03-21 21:54:00
5:54 PM,69.1,53.1,57,30.04,10.0,NW,8.1,-,N/A,,Clear,310,2012-03-21 22:54:00
6:54 PM,66.9,53.1,61,30.05,10.0,WNW,8.1,-,N/A,,Clear,300,2012-03-21 23:54:00
7:54 PM,66.0,53.1,63,30.05,10.0,NW,3.5,-,N/A,,Clear,310,2012-03-22 00:54:00
8:54 PM,64.0,53.1,67,30.06,10.0,Calm,Calm,-,N/A,,Clear,0,2012-03-22 01:54:00
9:54 PM,63.0,53.1,70,30.07,10.0,Calm,Calm,-,N/A,,Clear,0,2012-03-22 02:54:00
10:54 PM,63.0,53.1,70,30.07,10.0,Calm,Calm,-,N/A,,Clear,0,2012-03-22 03:54:00
11:54 PM,62.1,53.1,72,30.08,10.0,Calm,Calm,-,N/A,,Clear,0,2012-03-22 04:54:00